Regional Weather Roundup
Issued by NWS

Home | Current Version | Previous Version | Text Only | Print | Product List | Glossary On
Versions: 1 2 3 4 5 6 7 8 9 10 11 12 13 14 15 16 17 18 19 20 21 22 23 24 25 26 27 28 29 30 31 32 33 34 35 36 37 38 39 40 41 42 43 44 45 46 47 48 49 50
000
ASUS42 KFFC 300003
RWRGA
WEATHER ROUNDUP FOR GEORGIA
NATIONAL WEATHER SERVICE PEACHTREE CITY GA
800 PM EDT FRI AUG 29 2014

NOTE: "FAIR" INDICATES FEW OR NO CLOUDS BELOW 12,000 FEET WITH NO
SIGNIFICANT WEATHER AND/OR OBSTRUCTIONS TO VISIBILITY.

* = USE WITH CAUTION. THE STATIONS MARKED WITH AN ASTERISK MAY NOT
REPORT WEATHER SUCH AS PRECIPITATION, FOG, OR THUNDER AND ARE NOT
QUALITY CONTROLLED BY NWS.

THE REMARK "TC" DENOTES TEMPERATURE READING IN DEGREES CELSIUS.

GAZ001>058-300100-
NORTH GEORGIA

CITY           SKY/WX    TMP DP  RH WIND       PRES   REMARKS
ATLANTA        PTCLDY    87  58  37 SE5       30.04S
6HR MIN TEMP:  87; 6HR MAX TEMP:  92;

ATHENS         CLEAR     86  56  35 CALM      30.04R
6HR MIN TEMP:  86; 6HR MAX TEMP:  97;

CHAMBLEE       CLEAR     83  59  44 CALM      30.04F
6HR MIN TEMP:  83; 6HR MAX TEMP:  93;

PEACHTREE CITY CLEAR     79  68  69 CALM      30.02F
6HR MIN TEMP:  79; 6HR MAX TEMP:  94;

ROME           CLEAR     85  61  44 CALM      30.01S
6HR MIN TEMP:  85; 6HR MAX TEMP:  95;

WEST ATLANTA   CLEAR     88  59  37 E3        30.02F
6HR MIN TEMP:  88; 6HR MAX TEMP:  93;

GAINESVILLE    CLEAR     86  51  29 S3        30.08S
6HR MIN TEMP:  86; 6HR MAX TEMP:  93;

CARTERSVILLE   CLEAR     81  64  56 CALM      30.03S
6HR MIN TEMP:  81; 6HR MAX TEMP:  94;



CITY           SKY/WX    TMP DP  RH WIND       PRES   REMARKS
DALTON*        PTCLDY    82  63  51 CALM      30.02S
LAWRENCEVILLE* CLEAR     88  54  31 CALM      30.05S
MARIETTA       MOCLDY    85  59  40 E3        30.04F
KENNESAW*      PTCLDY    88  59  37 S5        30.05F
$$

GAZ059>098-102>109-300100-
CENTRAL GEORGIA

CITY           SKY/WX    TMP DP  RH WIND       PRES   REMARKS
AUGUSTA-BUSH   CLEAR     80  66  62 CALM      30.02S
6HR MIN TEMP:  80; 6HR MAX TEMP:  96;

AUGUSTA-DANIEL CLEAR     90  60  36 SE6       30.04S
6HR MIN TEMP:  90; 6HR MAX TEMP:  96;

COLUMBUS       CLEAR     89  60  37 SE3       29.98R
6HR MIN TEMP:  89; 6HR MAX TEMP:  97;

MACON          CLEAR     85  64  49 E3        30.00S
6HR MIN TEMP:  85; 6HR MAX TEMP:  96;

ROBINS AFB     CLEAR     82  69  66 SE1       30.00S


CITY           SKY/WX    TMP DP  RH WIND       PRES   REMARKS
LAGRANGE*      CLEAR     85  68  56 CALM      30.00S
SYLVANIA*      CLEAR     83  69  62 SE5       30.06R
MILLEDGEVILLE* CLEAR     86  68  54 CALM      30.02S
$$

GAZ099>101-110>166-300100-
SOUTH GEORGIA

CITY           SKY/WX    TMP DP  RH WIND       PRES   REMARKS
SAVANNAH       PTCLDY    84  70  62 S9        30.07R
6HR MIN TEMP:  84; 6HR MAX TEMP:  94;

VALDOSTA       PTCLDY    83  74  74 S7        30.03R
6HR MIN TEMP:  83; 6HR MAX TEMP:  97;

ALMA           CLEAR     86  68  54 SE8       30.02S
6HR MIN TEMP:  86; 6HR MAX TEMP:  95;

ST SIMONS      CLEAR     83  74  74 SE13      30.06R
6HR MIN TEMP:  83; 6HR MAX TEMP:  88;

FT STEWART     MOCLDY    83  72  67 SE7       30.05R
ALBANY         PTCLDY    82  74  76 W6        30.04R
HUNTER AFB     CLEAR     82  74  77 SE6       30.05R
MOODY AFB      PTCLDY    82  75  78 S6        30.03R
BRUNSWICK      CLEAR     84  73  70 SE7       30.07R HX  91


CITY           SKY/WX    TMP DP  RH WIND       PRES   REMARKS
BAINBRIDGE*    CLOUDY    81  77  89 CALM      30.03R
MOULTRIE*      PTCLDY    82  75  78 CALM      30.04R
VIDALIA*         N/A     88  64  45 SE5       30.03S
WAYCROSS*      PTCLDY    89  77  67 SE12      30.03R HX 100
DOUGLAS*       CLEAR     91  61  35 SE6       30.03R HX  91
$$



USA.gov is the U.S. government's official web portal to all federal, state and local government web resources and services.